• în Republica Moldova
  • Lista ţărilor
  • Pe 7 zile
  • Temperatura apei
  • Hartă satelitară
  • Meteo pe hartă
  • Widget-uri
  • user-avatar
    Intrare

    Meteo pe oră la Lubango

    Astăzi, 28 Februarie, Marţi

    Timp Temperatura Precipitaţii Vânt Presiune Umiditate
    00:00 +14°C° 0,2 mm 0 m/s 607 mmHg 86%
    01:00 +14°C° 0 mm 0 m/s 607 mmHg 87%
    02:00 +14°C° 0,1 mm 0 m/s 607 mmHg 88%
    03:00 +13°C° 0,1 mm 0 m/s 606 mmHg 89%
    04:00 +13°C° 0,1 mm 0 m/s 606 mmHg 90%
    05:00 +14°C° 0,2 mm 0 m/s 607 mmHg 88%
    06:00 +14°C° 0,2 mm 0 m/s 607 mmHg 85%
    07:00 +15°C° 0 mm 0 m/s 608 mmHg 82%
    08:00 +16°C° 0,9 mm 0 m/s 608 mmHg 78%
    09:00 +17°C° 0,9 mm 0 m/s 609 mmHg 74%
    10:00 +18°C° 0,9 mm 0 m/s 609 mmHg 71%
    11:00 +18°C° 0,7 mm 0 m/s 609 mmHg 72%
    12:00 +20°C° 0,7 mm 1 m/s 609 mmHg 72%
    13:00 +21°C° 0,7 mm 1 m/s 608 mmHg 73%
    14:00 +20°C° 0,7 mm 1 m/s 608 mmHg 74%
    15:00 +20°C° 0,7 mm 1 m/s 608 mmHg 75%
    16:00 +20°C° 0,7 mm 1 m/s 607 mmHg 76%
    17:00 +19°C° 0,4 mm 1 m/s 607 mmHg 80%
    18:00 +18°C° 0,4 mm 1 m/s 607 mmHg 84%
    19:00 +16°C° 0,4 mm 1 m/s 607 mmHg 88%
    20:00 +16°C° 0,4 mm 1 m/s 607 mmHg 90%
    21:00 +15°C° 0,4 mm 1 m/s 608 mmHg 92%
    22:00 +15°C° 0,4 mm 1 m/s 608 mmHg 94%
    23:00 +15°C° 0,3 mm 1 m/s 608 mmHg 94%

    Mâine, 1 Martie, Miercuri

    Timp Temperatura Precipitaţii Vânt Presiune Umiditate
    00:00 +15°C° 0,3 mm 1 m/s 607 mmHg 95%
    01:00 +14°C° 0,3 mm 1 m/s 607 mmHg 96%
    02:00 +14°C° 0,1 mm 1 m/s 607 mmHg 96%
    03:00 +13°C° 0,1 mm 0 m/s 607 mmHg 96%
    04:00 +13°C° 0,1 mm 0 m/s 606 mmHg 96%
    05:00 +13°C° 0,2 mm 0 m/s 607 mmHg 95%
    06:00 +14°C° 0,2 mm 1 m/s 607 mmHg 94%
    07:00 +14°C° 0,2 mm 1 m/s 607 mmHg 93%
    08:00 +15°C° 0,1 mm 1 m/s 608 mmHg 87%
    09:00 +16°C° 0,1 mm 1 m/s 609 mmHg 80%
    10:00 +18°C° 0,1 mm 1 m/s 609 mmHg 74%
    11:00 +19°C° 0,1 mm 1 m/s 609 mmHg 71%
    12:00 +19°C° 0,1 mm 2 m/s 609 mmHg 68%
    13:00 +19°C° 0,1 mm 2 m/s 609 mmHg 64%
    14:00 +19°C° 0,1 mm 2 m/s 609 mmHg 65%
    15:00 +19°C° 0,1 mm 2 m/s 608 mmHg 66%
    16:00 +19°C° 0,1 mm 2 m/s 607 mmHg 67%
    17:00 +17°C° 0 mm 2 m/s 607 mmHg 72%
    18:00 +16°C° 0 mm 2 m/s 607 mmHg 77%
    19:00 +15°C° 0 mm 1 m/s 606 mmHg 83%
    20:00 +14°C° 0 mm 1 m/s 607 mmHg 85%
    21:00 +13°C° 0 mm 1 m/s 607 mmHg 87%
    22:00 +12°C° 0 mm 0 m/s 607 mmHg 89%
    23:00 +11°C° 0 mm 0 m/s 607 mmHg 91%

    Poimâine, 2 Martie, Joi

    Timp Temperatura Precipitaţii Vânt Presiune Umiditate
    00:00 +12°C° 0 mm 1 m/s 607 mmHg 92%
    01:00 +12°C° 0 mm 1 m/s 607 mmHg 94%
    02:00 +12°C° 0 mm 1 m/s 606 mmHg 94%
    03:00 +12°C° 0 mm 1 m/s 606 mmHg 95%
    04:00 +12°C° 0 mm 1 m/s 606 mmHg 96%
    05:00 +12°C° 0 mm 1 m/s 606 mmHg 94%
    06:00 +13°C° 0 mm 1 m/s 607 mmHg 92%
    07:00 +13°C° 0 mm 1 m/s 607 mmHg 89%
    08:00 +15°C° 0 mm 1 m/s 608 mmHg 79%
    09:00 +19°C° 0 mm 1 m/s 610 mmHg 68%
    10:00 +20°C° 0 mm 2 m/s 611 mmHg 57%
    11:00 +21°C° 0 mm 2 m/s 610 mmHg 54%
    12:00 +21°C° 0 mm 3 m/s 610 mmHg 51%
    13:00 +22°C° 0 mm 3 m/s 610 mmHg 47%
    14:00 +22°C° 0 mm 3 m/s 609 mmHg 49%
    15:00 +22°C° 0 mm 3 m/s 609 mmHg 50%
    16:00 +21°C° 0 mm 3 m/s 608 mmHg 51%
    17:00 +19°C° 0 mm 2 m/s 608 mmHg 59%
    18:00 +18°C° 0 mm 2 m/s 607 mmHg 68%
    19:00 +16°C° 0 mm 1 m/s 607 mmHg 76%
    20:00 +15°C° 0 mm 1 m/s 607 mmHg 81%
    21:00 +14°C° 0 mm 1 m/s 608 mmHg 85%
    22:00 +14°C° 0 mm 1 m/s 608 mmHg 90%
    23:00 +13°C° 0 mm 1 m/s 608 mmHg 91%

    3 Martie, Vineri

    Timp Temperatura Precipitaţii Vânt Presiune Umiditate
    00:00 +13°C° 0 mm 1 m/s 607 mmHg 93%
    01:00 +13°C° 0 mm 1 m/s 607 mmHg 95%
    02:00 +13°C° 0 mm 1 m/s 607 mmHg 95%
    03:00 +13°C° 0 mm 1 m/s 607 mmHg 95%
    04:00 +13°C° 0 mm 1 m/s 606 mmHg 95%
    05:00 +13°C° 0 mm 1 m/s 607 mmHg 92%
    06:00 +13°C° 0 mm 1 m/s 607 mmHg 90%
    07:00 +13°C° 0 mm 1 m/s 607 mmHg 88%
    08:00 +16°C° 0 mm 1 m/s 608 mmHg 77%
    09:00 +19°C° 0 mm 1 m/s 609 mmHg 66%
    10:00 +20°C° 0 mm 2 m/s 610 mmHg 55%
    11:00 +21°C° 0 mm 2 m/s 610 mmHg 53%
    12:00 +23°C° 0 mm 2 m/s 610 mmHg 51%
    13:00 +24°C° 0 mm 3 m/s 609 mmHg 50%
    14:00 +22°C° 0,1 mm 3 m/s 609 mmHg 52%
    15:00 +21°C° 0,1 mm 3 m/s 608 mmHg 55%
    16:00 +21°C° 0,1 mm 3 m/s 607 mmHg 58%
    17:00 +19°C° 0 mm 2 m/s 607 mmHg 65%
    18:00 +18°C° 0 mm 2 m/s 607 mmHg 72%
    19:00 +16°C° 0 mm 2 m/s 606 mmHg 79%
    20:00 +15°C° 0 mm 1 m/s 607 mmHg 83%
    21:00 +15°C° 0 mm 1 m/s 607 mmHg 87%
    22:00 +14°C° 0 mm 1 m/s 607 mmHg 92%
    23:00 +14°C° 0 mm 1 m/s 606 mmHg 93%

    4 Martie, Sâmbătă

    Timp Temperatura Precipitaţii Vânt Presiune Umiditate
    00:00 +12°C° 0 mm 0 m/s 606 mmHg 95%
    01:00 +12°C° 0 mm 0 m/s 606 mmHg 96%
    02:00 +11°C° 0 mm 0 m/s 605 mmHg 97%
    03:00 +11°C° 0 mm 0 m/s 605 mmHg 97%
    04:00 +12°C° 0 mm 1 m/s 604 mmHg 97%
    05:00 +12°C° 0 mm 1 m/s 605 mmHg 94%
    06:00 +13°C° 0 mm 1 m/s 606 mmHg 92%
    07:00 +13°C° 0 mm 1 m/s 606 mmHg 89%
    08:00 +16°C° 0 mm 1 m/s 607 mmHg 75%
    09:00 +19°C° 0 mm 2 m/s 609 mmHg 61%
    10:00 +21°C° 0 mm 2 m/s 610 mmHg 47%
    11:00 +23°C° 0 mm 2 m/s 610 mmHg 44%
    12:00 +24°C° 0 mm 3 m/s 609 mmHg 40%
    13:00 +26°C° 0 mm 3 m/s 609 mmHg 36%
    14:00 +25°C° 0 mm 4 m/s 609 mmHg 37%
    15:00 +25°C° 0 mm 4 m/s 608 mmHg 39%
    16:00 +25°C° 0 mm 4 m/s 608 mmHg 41%
    17:00 +21°C° 0 mm 3 m/s 607 mmHg 52%
    18:00 +18°C° 0 mm 2 m/s 607 mmHg 63%
    19:00 +16°C° 0 mm 2 m/s 606 mmHg 74%
    20:00 +15°C° 0 mm 1 m/s 606 mmHg 80%
    21:00 +14°C° 0 mm 1 m/s 606 mmHg 86%
    22:00 +13°C° 0 mm 1 m/s 606 mmHg 91%
    23:00 +12°C° 0 mm 1 m/s 606 mmHg 93%

    5 Martie, Duminică

    Timp Temperatura Precipitaţii Vânt Presiune Umiditate
    00:00 +11°C° 0 mm 0 m/s 606 mmHg 94%
    01:00 +10°C° 0 mm 0 m/s 605 mmHg 95%
    02:00 +10°C° 0 mm 0 m/s 605 mmHg 96%
    03:00 +10°C° 0 mm 0 m/s 605 mmHg 96%
    04:00 +10°C° 0 mm 0 m/s 605 mmHg 96%
    05:00 +11°C° 0 mm 0 m/s 605 mmHg 92%
    06:00 +11°C° 0 mm 0 m/s 606 mmHg 89%
    07:00 +12°C° 0 mm 0 m/s 607 mmHg 85%
    08:00 +15°C° 0 mm 0 m/s 608 mmHg 68%
    09:00 +21°C° 0 mm 1 m/s 609 mmHg 52%
    10:00 +24°C° 0 mm 1 m/s 611 mmHg 35%
    11:00 +25°C° 0 mm 1 m/s 610 mmHg 32%
    12:00 +26°C° 0 mm 2 m/s 610 mmHg 28%
    13:00 +27°C° 0 mm 2 m/s 610 mmHg 25%
    14:00 +27°C° 0 mm 2 m/s 610 mmHg 26%
    15:00 +27°C° 0 mm 3 m/s 609 mmHg 26%
    16:00 +26°C° 0 mm 3 m/s 609 mmHg 27%
    17:00 +23°C° 0 mm 2 m/s 608 mmHg 36%
    18:00 +19°C° 0 mm 2 m/s 607 mmHg 46%
    19:00 +16°C° 0 mm 2 m/s 606 mmHg 55%
    20:00 +15°C° 0 mm 1 m/s 606 mmHg 64%
    21:00 +14°C° 0 mm 1 m/s 606 mmHg 73%
    22:00 +13°C° 0 mm 1 m/s 606 mmHg 81%
    23:00 +11°C° 0 mm 0 m/s 606 mmHg 84%
    Arată mai mult